ARIANE 40 R/B, 21610

Orbit data source: Space-Track

ARIANE 40 R/B, 21610 is space debris in SSO originally from a launch on Wed, 17 Jul 1991 UTC launched from the French Guiana (FRGUI). Debris objects in space refer to the collection of defunct objects orbiting the Earth. Examples of debris include non-operational satellites, rocket bodies, and fragments generated from explosions, collisions, or faulty payload assembly.

Loading next visibility...
Identifier
21610, 1991-050F
Orbit
SSO
Country
Flag of FRFR
Related business
Manufacturer
Ae/LesM
Mission
Spacecraft
Bus & Motor
ARIANE H10, Unknown motor
Mass
1,875 kg wet, 1,820 kg dry
Launch date (UTC)
1991-07-17 (35 years ago)
Launch vehicle
Unknown
Launch site
French Guiana (FRGUI)
Object type
Payload
Rocket body
Debris
Shape & HBR
Cyl, 5.9 m
Radar Cross Section
26.751 m², Large (>1 m²)

Expand to show TLE details & history
Last TLE update: 2 days ago

TLE from 2 days ago
0 ARIANE 40 R/B
1 21610U 91050F   26171.37747017  .00000187  00000-0  68296-4 0  9999
2 21610  98.1874 219.6701 0004341 114.5448 245.6196 14.42958577833801
Epoch: 2026-06-20T09:03Z
TLE epoch observation values (Epoch: 2026-06-20T09:03:33.422Z)
Latitude
Longitude
175.18788°
Altitude
752.981 km
Speed
7.477 km/s
True Right ascension
14h 38m 40s
True Declination
0° 00' 00"
Sunlit
Object was in full shadow at epoch
Visualization orbit readout
Latitude
Unknown
Longitude
Unknown
Altitude
Unknown
Speed
Unknown
Apparent Right ascension
Unknown
Apparent Declination
Unknown
Sunlit
N/A
Visualization observer readout
Local Sidereal Time
00:27:49
Azimuth
Unknown
Elevation
Unknown
Doppler factor
Unknown
Orbital elements
Apogee altitude
748.936 km
Perigee altitude
742.751 km
Semi-major axis
7,123.98 km
Eccentricity
0.00043
Inclination
98.1874°
RAAN
219.6701°
Arg. of periapsis
114.5448°
True anomaly
245.5743°
Mean anomaly
245.6196°
Eccentric anomaly
245.59695°
Mean motion
3.6096 °/min
Orbital period
99.73 mins
BSTAR
0.000068296
Loading maneuver chart data...
Computing Atmospheric mass density...
Loading historical data...
Loading historical data...
Loading historical data...
Loading historical data...
Loading historical data...
Loading historical data...
Loading historical data...

Documentation

Showing up to 5 results
|